Location: Aultman
(40.9284°N, 81.4173°W)
Time: 08:42:17
(UTC+00:00)

Cosmos 1328 - Pass Details

Date: 24 January 2021
Orbit: 528 x 555 km, 82.5° (Epoch: 02 March)

Event Time Altitude Azimuth Distance (km) Brightness Sun altitude
Rises 23:44:47 0° 178° (S) 2,712 7.5 -13.5°
Reaches altitude 10° 23:46:57 10° 175° (S) 1,820 6.6 -13.9°
Maximum altitude 23:50:54 61° 95° (E) 624 3.8 -14.7°
Drops below altitude 10° 23:54:51 10° 15° (NNE) 1,821 6.2 -15.4°
Enters shadow 23:56:00 - 13° (NNE) 2,290 6.7 -15.6°
